KC0AFB Weather Reports


Display with metric or nautical units.
time (UTC)temp
F
wind
direction
speed
MPH
gust
MPH
rain 1hr
in
rain 24hr
in
rain mn
in
humidity
%
barometer
mb
20260831174625 75 231 15.0 20.0 0.00 0.00 0.00 45 1013.4
20260831174120 75 218 11.0 13.0 0.00 0.00 0.00 47 1013.6
20260831173618 75 233 11.0 14.0 0.00 0.00 0.00 47 1013.6
20260831173114 74 232 11.0 22.0 0.00 0.00 0.00 48 1013.5
20260831172609 74 207 15.0 17.0 0.00 0.00 0.00 47 1013.6
20260831172103 74 216 13.0 16.0 0.00 0.00 0.00 48 1013.5
20260831171558 74 249 9.0 14.0 0.00 0.00 0.00 48 1013.6
20260831171056 73 223 12.0 15.0 0.00 0.00 0.00 50 1013.6
20260831170551 73 244 9.0 11.0 0.00 0.00 0.00 50 1013.7
20260831170049 73 266 8.0 9.0 0.00 0.00 0.00 51 1013.7
20260831165549 73 205 12.0 16.0 0.00 0.00 0.00 51 1013.7
20260831165046 73 174 8.0 10.0 0.00 0.00 0.00 52 1013.8
20260831164542 72 249 11.0 15.0 0.00 0.00 0.00 51 1013.8
20260831164037 72 218 9.0 13.0 0.00 0.00 0.00 55 1013.8
20260831163531 72 262 9.0 11.0 0.00 0.00 0.00 55 1013.8
20260831163028 71 252 12.0 15.0 0.00 0.00 0.00 55 1013.6
20260831162526 71 235 12.0 13.0 0.00 0.00 0.00 59 1013.8
20260831162024 71 236 13.0 15.0 0.00 0.00 0.00 60 1013.8
20260831161521 71 246 7.0 8.0 0.00 0.00 0.00 62 1013.7
20260831161017 70 252 10.0 13.0 0.00 0.00 0.00 61 1013.7
20260831160516 70 278 11.0 13.0 0.00 0.00 0.00 62 1013.7
20260831160012 70 226 10.0 13.0 0.00 0.00 0.00 62 1013.9
20260831155506 69 217 6.0 8.0 0.00 0.00 0.00 63 1013.9
20260831155001 69 239 6.0 10.0 0.00 0.00 0.00 64 1014.0
20260831154458 69 235 13.0 18.0 0.00 0.00 0.00 62 1013.9
20260831153956 69 223 11.0 13.0 0.00 0.00 0.00 63 1014.0
20260831153452 68 195 5.0 6.0 0.00 0.00 0.00 68 1014.0
20260831152949 68 229 6.0 8.0 0.00 0.00 0.00 68 1013.9
20260831152444 67 228 9.0 10.0 0.00 0.00 0.00 67 1014.0
20260831151939 67 261 6.0 8.0 0.00 0.00 0.00 68 1014.0
20260831151438 67 214 9.0 13.0 0.00 0.00 0.00 67 1013.9
20260831150933 66 233 11.0 13.0 0.00 0.00 0.00 68 1013.8
20260831150428 66 261 7.0 8.0 0.00 0.00 0.00 70 1013.9
20260831145927 66 226 4.0 5.0 0.00 0.00 0.00 74 1014.0
20260831145424 65 196 8.0 9.0 0.00 0.00 0.00 72 1013.9
20260831144919 65 252 8.0 10.0 0.00 0.00 0.00 74 1013.9
20260831144410 64 188 6.0 7.0 0.00 0.00 0.00 75 1013.8
20260831143910 64 240 6.0 9.0 0.00 0.00 0.00 75 1013.7
20260831143404 64 246 7.0 8.0 0.00 0.00 0.00 75 1013.8
20260831142854 63 209 5.0 7.0 0.00 0.00 0.00 75 1013.6
20260831142349 62 201 10.0 13.0 0.00 0.00 0.00 77 1013.6
20260831141844 62 207 8.0 9.0 0.00 0.00 0.00 78 1013.7
20260831141339 61 210 4.0 5.0 0.00 0.00 0.00 80 1013.7
20260831140833 61 208 7.0 9.0 0.00 0.00 0.00 80 1013.6
20260831140328 60 178 6.0 8.0 0.00 0.00 0.00 80 1013.8
20260831135827 60 205 7.0 8.0 0.00 0.00 0.00 81 1013.6
20260831135322 60 214 7.0 9.0 0.00 0.00 0.00 81 1013.5
20260831134817 59 197 6.0 7.0 0.00 0.00 0.00 82 1013.5
20260831134314 59 213 6.0 7.0 0.00 0.00 0.00 82 1013.5
20260831133813 58 201 8.0 9.0 0.00 0.00 0.00 83 1013.5
20260831133312 58 215 7.0 9.0 0.00 0.00 0.00 84 1013.5
20260831132808 58 200 6.0 9.0 0.00 0.00 0.00 83 1013.5
20260831132306 57 184 7.0 8.0 0.00 0.00 0.00 84 1013.2
20260831131757 57 195 5.0 7.0 0.00 0.00 0.00 85 1013.6
20260831131253 57 198 4.0 5.0 0.00 0.00 0.00 85 1013.6
20260831130748 56 177 6.0 7.0 0.00 0.00 0.00 86 1013.2
20260831130244 56 194 5.0 6.0 0.00 0.00 0.00 86 1013.5
20260831125742 56 212 3.0 6.0 0.00 0.00 0.00 87 1013.3
20260831125238 55 191 3.0 5.0 0.00 0.00 0.00 88 1013.5
20260831124732 55 218 4.0 5.0 0.00 0.00 0.00 89 1013.4
20260831124229 54 196 2.0 2.0 0.00 0.00 0.00 90 1013.5
20260831123729 54 179 1.0 2.0 0.00 0.00 0.00 90 1013.4
20260831123227 53 200 1.0 1.0 0.00 0.00 0.00 91 1013.2
20260831122722 53 136 0.0 1.0 0.00 0.00 0.00 91 1013.4
20260831122218 52 166 1.0 1.0 0.00 0.00 0.00 91 1013.3
20260831121717 53 114 0.0 0.0 0.00 0.00 0.00 91 1013.3
20260831121214 53 190 2.0 2.0 0.00 0.00 0.00 91 1013.4
20260831120709 53 197 1.0 1.0 0.00 0.00 0.00 91 1013.2
20260831120203 53 273 2.0 2.0 0.00 0.00 0.00 92 1013.0
20260831115659 52 69 0.0 0.0 0.00 0.00 0.00 92 1013.1
20260831115155 52 74 0.0 1.0 0.00 0.00 0.00 92 1012.9
20260831114654 52 93 0.0 0.0 0.00 0.00 0.00 92 1013.0
20260831114148 52 162 0.0 0.0 0.00 0.00 0.00 92 1013.0
20260831113643 52 214 1.0 2.0 0.00 0.00 0.00 92 1012.7
20260831113138 52 205 2.0 3.0 0.00 0.00 0.00 92 1012.6
20260831112637 52 206 1.0 2.0 0.00 0.00 0.00 92 1012.6
20260831112132 52 215 2.0 2.0 0.00 0.00 0.00 92 1012.7
20260831111628 52 158 1.0 1.0 0.00 0.00 0.00 92 1012.6
20260831111123 52 202 3.0 3.0 0.00 0.00 0.00 92 1012.7
20260831110618 52 221 2.0 2.0 0.00 0.00 0.00 92 1012.6
20260831110109 52 180 2.0 2.0 0.00 0.00 0.00 92 1012.6
20260831105607 52 203 2.0 2.0 0.00 0.00 0.00 92 1012.5
20260831105102 52 191 2.0 2.0 0.00 0.00 0.00 92 1012.5
20260831104557 52 162 2.0 2.0 0.00 0.00 0.00 92 1012.3
20260831104048 52 181 2.0 2.0 0.00 0.00 0.00 92 1012.6
20260831103543 52 188 2.0 2.0 0.00 0.00 0.00 92 1012.3
20260831103039 52 188 3.0 5.0 0.00 0.00 0.00 92 1012.2
20260831102533 52 197 2.0 2.0 0.00 0.00 0.00 92 1012.0
20260831102028 52 211 2.0 2.0 0.00 0.00 0.00 92 1012.2
20260831101523 52 158 0.0 0.0 0.00 0.00 0.00 92 1011.9
20260831101020 52 196 1.0 2.0 0.00 0.00 0.00 92 1011.9
20260831100515 52 230 1.0 2.0 0.00 0.00 0.00 92 1011.9
20260831100011 52 183 3.0 3.0 0.00 0.00 0.00 92 1011.8
20260831095509 52 190 0.0 0.0 0.00 0.00 0.00 92 1011.7
20260831095004 52 168 0.0 0.0 0.00 0.00 0.00 92 1012.0
20260831094500 52 158 0.0 1.0 0.00 0.00 0.00 91 1012.0
20260831093956 52 211 2.0 2.0 0.00 0.00 0.00 91 1011.8
20260831093450 52 187 1.0 1.0 0.00 0.00 0.00 92 1011.6
20260831092947 52 171 1.0 1.0 0.00 0.00 0.00 92 1011.8
20260831092442 52 169 0.0 0.0 0.00 0.00 0.00 92 1011.7
20260831091937 52 171 0.0 0.0 0.00 0.00 0.00 92 1011.7
20260831091433 52 186 1.0 1.0 0.00 0.00 0.00 92 1011.5
20260831090927 53 165 0.0 0.0 0.00 0.00 0.00 92 1011.5
20260831090424 53 219 2.0 2.0 0.00 0.00 0.00 92 1011.6
20260831085920 52 204 0.0 0.0 0.00 0.00 0.00 92 1011.5
20260831085414 52 183 0.0 0.0 0.00 0.00 0.00 92 1011.7
20260831084914 52 138 0.0 0.0 0.00 0.00 0.00 92 1011.7
20260831084410 53 185 1.0 1.0 0.00 0.00 0.00 92 1011.6
20260831083906 53 220 1.0 1.0 0.00 0.00 0.00 92 1011.7
20260831083401 53 201 0.0 1.0 0.00 0.00 0.00 92 1011.5
20260831082900 53 186 1.0 2.0 0.00 0.00 0.00 92 1011.7
20260831082400 53 191 1.0 1.0 0.00 0.00 0.00 92 1011.7
20260831081856 52 160 0.0 0.0 0.00 0.00 0.00 92 1011.6
20260831081351 52 135 0.0 0.0 0.00 0.00 0.00 92 1011.7
20260831080847 52 189 0.0 0.0 0.00 0.00 0.00 92 1011.5
20260831080343 53 134 0.0 0.0 0.00 0.00 0.00 92 1011.5
20260831075838 52 131 0.0 0.0 0.00 0.00 0.00 92 1011.3
20260831075332 52 109 0.0 0.0 0.00 0.00 0.00 92 1011.5
20260831074828 52 86 0.0 0.0 0.00 0.00 0.00 92 1011.5
20260831074327 53 85 0.0 0.0 0.00 0.00 0.00 92 1011.3
20260831073822 53 91 0.0 0.0 0.00 0.00 0.00 93 1011.1
20260831073316 53 64 0.0 0.0 0.00 0.00 0.00 92 1011.2
20260831072811 53 35 0.0 0.0 0.00 0.00 0.00 92 1011.4
20260831072307 53 35 0.0 0.0 0.00 0.00 0.00 92 1011.3
20260831071803 53 35 0.0 0.0 0.00 0.00 0.00 92 1011.3
20260831071256 53 339 0.0 0.0 0.00 0.00 0.00 92 1011.4
20260831070751 53 339 0.0 0.0 0.00 0.00 0.00 92 1011.4
20260831070250 54 339 0.0 0.0 0.00 0.00 0.00 92 1011.3
20260831065749 54 339 0.0 0.0 0.00 0.00 0.00 92 1011.3
20260831065247 54 339 0.0 0.0 0.00 0.00 0.00 92 1011.5
20260831064743 54 339 0.0 0.0 0.00 0.00 0.00 92 1011.5
20260831064237 54 337 0.0 0.0 0.00 0.00 0.00 92 1011.6
20260831063734 54 189 0.0 0.0 0.00 0.00 0.00 92 1011.3
20260831063228 54 335 0.0 0.0 0.00 0.00 0.00 91 1011.4
20260831062728 55 330 0.0 1.0 0.00 0.00 0.00 91 1011.8
20260831062223 55 192 2.0 2.0 0.00 0.00 0.00 91 1011.7
20260831061721 55 176 1.0 2.0 0.00 0.00 0.00 91 1011.9
20260831061217 55 238 1.0 2.0 0.00 0.00 0.00 91 1011.7
20260831060713 55 234 2.0 2.0 0.00 0.00 0.00 91 1011.6
20260831060212 56 206 0.0 0.0 0.00 0.00 0.00 91 1011.7
20260831055707 56 196 0.0 0.0 0.00 0.00 0.00 90 1011.2
20260831055201 56 211 3.0 3.0 0.00 0.00 0.00 90 1011.4
20260831054656 57 244 2.0 2.0 0.00 0.00 0.00 90 1011.2
20260831054156 57 214 4.0 5.0 0.00 0.00 0.00 90 1011.3
20260831053650 57 239 3.0 3.0 0.00 0.00 0.00 90 1011.3
20260831053149 57 276 3.0 3.0 0.00 0.00 0.00 90 1011.2
20260831052648 57 223 3.0 3.0 0.00 0.00 0.00 90 1011.1
20260831052147 57 258 2.0 2.0 0.00 0.00 0.00 90 1011.1
20260831051645 57 241 4.0 6.0 0.00 0.00 0.00 90 1010.9
20260831051144 57 259 3.0 3.0 0.00 0.00 0.00 91 1010.9
20260831050639 57 199 3.0 3.0 0.00 0.00 0.00 91 1010.7
20260831050133 57 251 3.0 3.0 0.00 0.00 0.00 91 1010.7
20260831045633 57 288 2.0 2.0 0.00 1.07 1.07 91 1010.6
20260831045128 57 295 2.0 2.0 0.00 1.07 1.07 91 1010.6
20260831044623 57 285 3.0 3.0 0.00 1.07 1.07 91 1010.6
20260831044118 57 189 1.0 2.0 0.00 1.07 1.07 91 1010.6
20260831043613 57 213 1.0 1.0 0.00 1.07 1.07 91 1010.4
20260831043103 58 145 0.0 1.0 0.00 1.07 1.07 91 1010.6
20260831042602 58 256 1.0 1.0 0.00 1.07 1.07 91 1010.5
20260831042057 58 176 1.0 1.0 0.00 1.07 1.07 91 1010.3
20260831041552 58 191 1.0 1.0 0.00 1.07 1.07 90 1010.4
20260831041051 59 257 2.0 2.0 0.00 1.07 1.07 90 1010.4
20260831040546 59 235 2.0 2.0 0.00 1.07 1.07 90 1010.4
20260831040045 59 317 0.0 0.0 0.00 1.07 1.07 89 1010.2
20260831035543 59 316 1.0 1.0 0.00 1.07 1.07 89 1010.3
20260831035039 59 267 1.0 2.0 0.00 1.07 1.07 89 1010.4
20260831034533 60 294 1.0 1.0 0.00 1.07 1.07 88 1010.4
20260831034028 60 295 2.0 2.0 0.00 1.07 1.07 88 1010.3
20260831033524 60 290 1.0 2.0 0.00 1.07 1.07 88 1010.6
20260831033019 61 194 1.0 2.0 0.00 1.07 1.07 87 1010.8
20260831032518 61 240 3.0 3.0 0.00 1.07 1.07 87 1010.7
20260831032014 61 228 4.0 5.0 0.00 1.07 1.07 87 1010.9
20260831031514 61 219 3.0 3.0 0.00 1.07 1.07 87 1010.6
20260831031013 62 227 3.0 3.0 0.00 1.07 1.07 85 1010.4
20260831030512 62 286 4.0 5.0 0.00 1.07 1.07 83 1009.9
20260831030011 62 297 5.0 6.0 0.00 1.07 1.07 83 1009.9
20260831025504 61 340 2.0 2.0 0.00 1.07 1.07 86 1010.0
20260831024959 61 166 0.0 0.0 0.00 1.07 1.07 86 1009.7
20260831024454 61 283 1.0 1.0 0.00 1.07 1.07 85 1009.8
20260831023948 61 53 0.0 1.0 0.00 1.07 1.07 85 1010.0
20260831023446 62 42 1.0 1.0 0.00 1.07 1.07 84 1009.6
20260831022942 62 39 1.0 2.0 0.00 1.07 1.07 82 1009.6
20260831022440 62 25 3.0 3.0 0.00 1.07 1.07 83 1009.8
20260831021935 62 38 2.0 3.0 0.00 1.07 1.07 82 1009.7
20260831021435 62 320 4.0 5.0 0.00 1.07 1.07 81 1009.7
20260831020931 62 311 4.0 5.0 0.00 1.07 1.07 83 1009.9
20260831020430 62 359 5.0 7.0 0.00 1.07 1.07 83 1009.3
20260831015925 61 322 5.0 7.0 0.00 1.07 1.07 84 1009.5
20260831015421 61 279 9.0 11.0 0.00 1.07 1.07 85 1010.0
20260831014917 61 261 9.0 14.0 0.00 1.07 1.07 85 1010.0
20260831014416 62 317 11.0 15.0 0.00 1.07 1.07 85 1010.2
20260831013912 61 0 11.0 16.0 0.00 1.07 1.07 88 1010.2
20260831013408 61 308 9.0 11.0 0.00 1.07 1.07 89 1010.3
20260831012902 62 317 11.0 16.0 0.00 1.07 1.07 90 1010.3
20260831012357 62 273 11.0 15.0 0.05 1.07 1.07 90 1010.2
20260831011852 62 299 15.0 17.0 0.05 1.07 1.07 91 1010.1
20260831011346 62 308 9.0 11.0 0.00 1.06 1.06 92 1009.9
20260831010837 62 295 11.0 13.0 0.14 1.06 1.06 93 1010.3
20260831010336 62 300 10.0 14.0 0.19 1.06 1.06 93 1010.6
20260831005832 62 297 12.0 16.0 0.24 1.04 1.04 94 1010.2
20260831005328 63 286 15.0 17.0 0.47 1.03 1.03 94 1010.2
20260831004827 64 274 9.0 11.0 1.84 1.00 1.00 93 1010.5
20260831004324 64 288 11.0 14.0 3.00 0.96 0.96 93 1010.4
20260831003819 65 285 20.0 25.0 1.79 0.74 0.74 92 1010.1
20260831003316 68 256 13.0 23.0 0.00 0.44 0.44 84 1010.0
20260831002815 70 265 10.0 13.0 0.00 0.44 0.44 81 1009.5
20260831002308 75 247 8.0 10.0 0.00 0.44 0.44 83 1008.9
20260831001804 75 170 6.0 7.0 0.00 0.44 0.44 84 1007.2
20260831001259 75 142 4.0 5.0 0.00 0.44 0.44 84 1006.8
20260831000757 76 122 3.0 5.0 0.00 0.44 0.44 83 1006.7
20260831000257 76 115 6.0 7.0 0.00 0.44 0.44 83 1006.6
20260830235755 76 125 7.0 9.0 0.00 0.44 0.44 82 1006.4
20260830235250 77 122 8.0 9.0 0.00 0.44 0.44 82 1006.5
20260830234745 77 97 8.0 10.0 0.00 0.44 0.44 81 1006.2
20260830234241 77 153 7.0 8.0 0.00 0.44 0.44 81 1006.2
20260830233737 77 143 8.0 10.0 0.00 0.44 0.44 81 1006.3
20260830233232 77 91 4.0 5.0 0.00 0.44 0.44 80 1006.5
20260830232727 77 108 4.0 6.0 0.00 0.44 0.44 80 1006.6
20260830232223 78 131 7.0 8.0 0.00 0.44 0.44 79 1006.6
20260830231720 78 114 5.0 8.0 0.00 0.44 0.44 79 1006.7
20260830231219 78 98 7.0 8.0 0.00 0.44 0.44 79 1006.6
20260830230714 78 81 5.0 7.0 0.00 0.44 0.44 79 1006.4
20260830230209 78 85 9.0 10.0 0.00 0.44 0.44 78 1006.5
20260830225703 78 127 5.0 6.0 0.00 0.44 0.44 78 1006.4
20260830225158 78 93 6.0 7.0 0.00 0.44 0.44 77 1006.3
20260830224657 79 135 5.0 7.0 0.00 0.44 0.44 77 1006.2
20260830224153 80 100 9.0 11.0 0.00 0.44 0.44 76 1006.2
20260830223649 79 78 7.0 10.0 0.00 0.44 0.44 77 1006.2
20260830223144 80 106 7.0 9.0 0.00 0.44 0.44 77 1006.5
20260830222639 79 80 6.0 9.0 0.00 0.44 0.44 76 1006.5
20260830222134 79 109 7.0 8.0 0.00 0.44 0.44 77 1006.5
20260830221629 80 140 6.0 7.0 0.00 0.44 0.44 76 1006.7
20260830221120 79 94 9.0 10.0 0.00 0.44 0.44 76 1006.6
20260830220615 79 102 11.0 14.0 0.00 0.44 0.44 77 1006.4
20260830220108 80 109 10.0 13.0 0.00 0.44 0.44 76 1006.6
20260830215607 80 106 7.0 10.0 0.00 0.44 0.44 75 1006.4
20260830215101 80 99 7.0 9.0 0.00 0.44 0.44 76 1006.4
20260830214556 79 73 7.0 9.0 0.00 0.44 0.44 77 1006.5
20260830214051 80 130 5.0 7.0 0.00 0.44 0.44 76 1006.8
20260830213545 81 82 7.0 8.0 0.00 0.44 0.44 74 1006.5
20260830213041 80 75 5.0 6.0 0.00 0.44 0.44 75 1006.9
20260830212537 81 60 7.0 9.0 0.00 0.44 0.44 74 1006.7
20260830212032 80 105 7.0 8.0 0.00 0.44 0.44 76 1006.8
20260830211526 81 83 8.0 9.0 0.00 0.44 0.44 76 1007.4
20260830211020 80 82 4.0 7.0 0.00 0.44 0.44 77 1007.5
20260830210515 80 102 7.0 8.0 0.00 0.44 0.44 78 1007.5
20260830210014 80 70 7.0 8.0 0.00 0.44 0.44 78 1007.8
20260830205507 80 101 5.0 6.0 0.00 0.44 0.44 78 1007.8
20260830205003 79 137 4.0 6.0 0.00 0.44 0.44 79 1007.5
20260830204501 79 102 5.0 7.0 0.00 0.44 0.44 79 1007.8
20260830203956 79 63 3.0 3.0 0.00 0.44 0.44 79 1008.1
20260830203452 79 78 6.0 7.0 0.00 0.44 0.44 79 1007.8
20260830202951 80 68 5.0 6.0 0.00 0.44 0.44 77 1007.9
20260830202446 80 55 7.0 8.0 0.00 0.44 0.44 77 1007.7
20260830201943 79 63 5.0 6.0 0.00 0.44 0.44 77 1007.9
20260830201441 79 48 4.0 6.0 0.00 0.44 0.44 79 1007.8
20260830200937 79 67 7.0 9.0 0.00 0.44 0.44 77 1007.8
20260830200437 80 84 5.0 7.0 0.00 0.44 0.44 79 1007.8
20260830195932 79 110 5.0 6.0 0.00 0.44 0.44 76 1008.1
20260830195427 79 58 5.0 7.0 0.00 0.44 0.44 76 1008.0
20260830194925 78 64 5.0 6.0 0.00 0.44 0.44 78 1007.7
20260830194424 78 85 6.0 8.0 0.00 0.44 0.44 78 1008.1
20260830193924 78 74 5.0 7.0 0.00 0.44 0.44 78 1007.9
20260830193423 79 116 6.0 7.0 0.00 0.44 0.44 76 1008.0
20260830192919 78 93 4.0 5.0 0.00 0.44 0.44 79 1008.2
20260830192414 78 126 7.0 8.0 0.00 0.44 0.44 78 1008.0
20260830191909 78 100 4.0 5.0 0.00 0.44 0.44 78 1008.1
20260830191408 77 68 5.0 6.0 0.00 0.44 0.44 80 1008.2
20260830190904 78 111 7.0 8.0 0.00 0.44 0.44 79 1008.3
20260830190359 78 84 4.0 5.0 0.00 0.44 0.44 80 1008.4
20260830185858 77 71 4.0 6.0 0.00 0.44 0.44 81 1008.3
20260830185353 77 54 5.0 8.0 0.00 0.44 0.44 82 1008.2
20260830184848 77 79 8.0 9.0 0.00 0.44 0.44 82 1008.4
20260830184347 76 86 3.0 3.0 0.00 0.44 0.44 83 1008.5
20260830183842 76 76 4.0 7.0 0.00 0.44 0.44 84 1008.7
20260830183336 76 62 4.0 5.0 0.00 0.44 0.44 84 1008.6
20260830182827 76 58 6.0 7.0 0.00 0.44 0.44 84 1008.7
20260830182322 76 61 5.0 6.0 0.00 0.44 0.44 84 1008.9
20260830181818 75 86 8.0 9.0 0.00 0.44 0.44 84 1008.9
20260830181314 75 60 6.0 7.0 0.00 0.44 0.44 84 1009.0
20260830180813 75 77 6.0 8.0 0.00 0.44 0.44 85 1009.0
20260830180307 75 63 5.0 6.0 0.00 0.44 0.44 86 1009.2
20260830175802 74 142 5.0 6.0 0.00 0.44 0.44 87 1009.3
20260830175257 74 131 6.0 7.0 0.00 0.44 0.44 87 1009.3